Riverbend Golf Club, California, United States
Lat: 36.93N, Lon: 119.76W
Wx Zone: CAZ090
Local Info
Past Weather Observations for Today

NOTE: This archive is for the closest National Weather Service station to Riverbend Golf Club. Information may differ from the station used for current weather conditions.

Click here for Long-term Archive

Time Weather Temperature Dewpoint Humidity Pressure Winds Precip Visibility
15:53
Mostly Cloudy
Hazy
59°F / 15°C 50°F / 10°C 72% 30.18 in
(1022 mb)
Calm - 6SM
14:53
Mostly Cloudy
Hazy
59°F / 15°C 50°F / 10°C 72% 30.18 in
(1022 mb)
Calm - 6SM
13:53
Mostly Cloudy
Hazy
57°F / 14°C 52°F / 11°C 82% 30.21 in
(1023 mb)
Calm - 5SM
12:53
Mostly Cloudy
Hazy
55°F / 13°C 52°F / 11°C 88% 30.21 in
(1023 mb)
SSE 3.5 mph
(SSE 6 kph)
- 3SM
11:53
Overcast
Fog And Mist
55°F / 13°C 52°F / 11°C 88% 30.24 in
(1024 mb)
SW 3.5 mph
(SW 6 kph)
- 2 1/2SM
11:08
Partly Cloudy
Fog And Mist
52°F / 11°C 50°F / 10°C 94% 30.27 in
(1025 mb)
SW 3.5 mph
(SW 6 kph)
- 2 1/2SM
10:53
Obscured
Fog And Mist
50°F / 10°C 50°F / 10°C 100% 30.27 in
(1025 mb)
S 3.5 mph
(S 6 kph)
- 1SM
10:24
Obscured
Fog
48°F / 9°C 48°F / 9°C 100% 30.27 in
(1025 mb)
Calm - 1/8SM
09:53
Obscured
Fog
48°F / 9°C 48°F / 9°C 100% 30.27 in
(1025 mb)
E 3.5 mph
(E 6 kph)
- 1/8SM
08:53
Obscured
Fog
46°F / 8°C 46°F / 8°C 100% 30.27 in
(1025 mb)
Calm - 1/8SM
07:53
Obscured
Fog
45°F / 7°C 45°F / 7°C 100% 30.24 in
(1024 mb)
WNW 3.5 mph
(WNW 6 kph)
- 1/16SM
07:23
Obscured
Fog
45°F / 7°C 43°F / 6°C 93% 30.24 in
(1024 mb)
NW 4.6 mph
(NW 7 kph)
- 1/16SM
06:53
Obscured
Fog
45°F / 7°C 45°F / 7°C 100% 30.24 in
(1024 mb)
Calm - 1/16SM
06:51
Obscured
Fog
45°F / 7°C 45°F / 7°C 100% 30.24 in
(1024 mb)
Calm - 1/16SM
05:53
Obscured
Fog
45°F / 7°C 45°F / 7°C 100% 30.27 in
(1025 mb)
Calm - 1/16SM
04:53
Obscured
Fog
45°F / 7°C 45°F / 7°C 100% 30.27 in
(1025 mb)
Calm - 1/16SM
04:03
Obscured
Fog
45°F / 7°C 45°F / 7°C 100% 30.24 in
(1024 mb)
Calm - 1/16SM
03:53
Obscured
Fog
46°F / 8°C 45°F / 7°C 93% 30.24 in
(1024 mb)
NW 5.8 mph
(NW 9 kph)
- 1/16SM
03:36
Obscured
Fog
46°F / 8°C 46°F / 8°C 100% 30.27 in
(1025 mb)
Calm - 1/16SM
02:55
Obscured
Fog
46°F / 8°C 46°F / 8°C 100% 30.27 in
(1025 mb)
Calm - 1/2SM
02:53
Partly Cloudy
Fog And Mist
46°F / 8°C 46°F / 8°C 100% 30.27 in
(1025 mb)
Calm - 1/2SM
02:24
Partly Cloudy
Fog And Mist
45°F / 7°C 45°F / 7°C 100% 30.27 in
(1025 mb)
SE 4.6 mph
(SE 7 kph)
- 2SM
01:53
Clear
Fog And Mist
48°F / 9°C 48°F / 9°C 100% 30.24 in
(1024 mb)
Calm - 3SM
00:53
Clear
Fog And Mist
48°F / 9°C 46°F / 8°C 94% 30.24 in
(1024 mb)
Calm - 3SM
Time Weather Temperature Dewpoint Humidity Pressure Winds Precip Visibility


Weather for websites

WeatherForYou.com, LLC is not responsible for any damages or problems caused by this service. Current weather conditions are obtained from the closest station including government and personal stations which may have varying degrees of accuracy. Weather forecasts are derived from the NOAA NDFD. Like all things, this site belongs to Jesus Christ... He just trusts me to maintain it. If you have any questions or comments email webmaster@weatherforyou.com

Copyright © 2015, WeatherForYou.com LLC. All rights reserved.